�������l�o���
Date,Time,MP-1(��Sv/h),MP-2(��Sv/h),MP-3(��Sv/h),MP-4(��Sv/h),MP-5(��Sv/h),MP-6(��Sv/h),MP-7(��Sv/h),MP-8(��Sv/h),����,����(m/s),���J
2023/01/28,00:00,0.543,0.779,0.496,1.017,0.688,0.317,0.576,0.549,�k�k��,6.9,��
2023/01/28,00:10,0.542,0.778,0.495,1.018,0.688,0.317,0.575,0.552,�k�k��,7.4,��
2023/01/28,00:20,0.541,0.778,0.494,1.018,0.686,0.319,0.577,0.551,�k�k��,6.7,��
2023/01/28,00:30,0.543,0.779,0.496,1.019,0.688,0.316,0.576,0.551,�k�k��,6.9,��
2023/01/28,00:40,0.543,0.779,0.496,1.017,0.686,0.315,0.577,0.551,�k�k��,5.5,��
2023/01/28,00:50,0.543,0.779,0.495,1.020,0.688,0.315,0.574,0.551,�k��,7.1,��
2023/01/28,01:00,0.543,0.779,0.495,1.019,0.688,0.316,0.576,0.551,�k�k��,10.4,��
2023/01/28,01:10,0.544,0.777,0.495,1.017,0.688,0.317,0.577,0.550,�k�k��,12.3,��
2023/01/28,01:20,0.543,0.780,0.495,1.019,0.686,0.316,0.577,0.550,�k�k��,11.9,��
2023/01/28,01:30,0.542,0.778,0.495,1.019,0.689,0.317,0.577,0.551,�k�k��,11.1,��
2023/01/28,01:40,0.544,0.778,0.495,1.017,0.687,0.317,0.578,0.550,�k�k��,9.7,��
2023/01/28,01:50,0.544,0.777,0.495,1.018,0.687,0.317,0.578,0.550,�k�k��,8.8,��
2023/01/28,02:00,0.544,0.779,0.495,1.019,0.685,0.316,0.576,0.552,�k�k��,9.1,��
2023/01/28,02:10,0.543,0.778,0.495,1.018,0.685,0.316,0.578,0.550,�k�k��,10.7,��
2023/01/28,02:20,0.543,0.777,0.495,1.019,0.686,0.317,0.576,0.551,�k�k��,10.8,��
2023/01/28,02:30,0.544,0.777,0.495,1.020,0.686,0.316,0.577,0.550,�k�k��,8.8,��
2023/01/28,02:40,0.542,0.777,0.495,1.018,0.686,0.317,0.577,0.550,�k�k��,9.6,��
2023/01/28,02:50,0.542,0.777,0.496,1.021,0.686,0.317,0.578,0.550,�k�k��,8.6,��
2023/01/28,03:00,0.544,0.777,0.494,1.021,0.683,0.316,0.577,0.551,�k�k��,8.0,��
2023/01/28,03:10,0.543,0.778,0.495,1.020,0.686,0.316,0.576,0.552,�k�k��,9.1,��
2023/01/28,03:20,0.543,0.778,0.494,1.020,0.686,0.317,0.577,0.550,�k�k��,7.4,��
2023/01/28,03:30,0.543,0.780,0.496,1.019,0.687,0.316,0.577,0.551,�k�k��,8.3,��
2023/01/28,03:40,0.545,0.778,0.495,1.021,0.686,0.316,0.576,0.549,�k�k��,8.8,��
2023/01/28,03:50,0.544,0.777,0.496,1.018,0.687,0.317,0.578,0.551,�k�k��,9.4,��
2023/01/28,04:00,0.545,0.779,0.496,1.020,0.688,0.317,0.577,0.550,�k�k��,8.9,��
2023/01/28,04:10,0.543,0.779,0.496,1.019,0.687,0.316,0.578,0.549,�k�k��,8.6,��
2023/01/28,04:20,0.543,0.780,0.496,1.019,0.684,0.316,0.578,0.550,�k,8.5,��
2023/01/28,04:30,0.544,0.779,0.494,1.023,0.687,0.317,0.578,0.550,�k,6.1,��
2023/01/28,04:40,0.543,0.778,0.495,1.021,0.688,0.317,0.577,0.550,�k�k��,6.9,��
2023/01/28,04:50,0.543,0.780,0.495,1.022,0.687,0.317,0.578,0.550,�k�k��,4.9,��
2023/01/28,05:00,0.544,0.781,0.496,1.021,0.689,0.318,0.576,0.550,�k�k��,4.1,��
2023/01/28,05:10,0.543,0.780,0.494,1.021,0.689,0.316,0.577,0.551,�k��,2.2,��
2023/01/28,05:20,0.544,0.779,0.495,1.021,0.686,0.316,0.578,0.550,�k��,1.9,��
2023/01/28,05:30,0.544,0.778,0.495,1.019,0.686,0.315,0.577,0.551,�k��,1.9,��
2023/01/28,05:40,0.544,0.777,0.494,1.021,0.687,0.316,0.577,0.551,�k��,2.3,��
2023/01/28,05:50,0.544,0.779,0.494,1.021,0.689,0.315,0.576,0.551,���k��,3.0,��
2023/01/28,06:00,0.542,0.778,0.494,1.019,0.686,0.317,0.577,0.549,�k��,1.8,��
2023/01/28,06:10,0.544,0.779,0.492,1.020,0.687,0.315,0.577,0.551,�k��,5.0,��
2023/01/28,06:20,0.543,0.779,0.494,1.020,0.689,0.316,0.578,0.550,���k��,8.0,��
2023/01/28,06:30,0.543,0.779,0.495,1.022,0.688,0.316,0.575,0.551,���k��,8.3,��
2023/01/28,06:40,0.542,0.780,0.496,1.023,0.688,0.316,0.577,0.551,���k��,7.4,��
2023/01/28,06:50,0.544,0.780,0.493,1.022,0.688,0.317,0.577,0.550,���k��,8.3,��
2023/01/28,07:00,0.541,0.779,0.493,1.018,0.688,0.316,0.578,0.550,��,8.8,��
2023/01/28,07:10,0.543,0.780,0.492,1.022,0.687,0.316,0.577,0.549,��,7.4,��
2023/01/28,07:20,0.543,0.779,0.494,1.021,0.687,0.316,0.577,0.550,��,6.4,��
2023/01/28,07:30,0.544,0.778,0.496,1.020,0.688,0.317,0.578,0.550,��,6.6,��
2023/01/28,07:40,0.544,0.780,0.495,1.020,0.687,0.316,0.577,0.551,��,6.4,��
2023/01/28,07:50,0.544,0.778,0.496,1.021,0.687,0.317,0.575,0.550,��,6.4,��
2023/01/28,08:00,0.544,0.779,0.495,1.020,0.686,0.316,0.576,0.550,���k��,5.8,��
2023/01/28,08:10,0.546,0.780,0.495,1.017,0.686,0.316,0.575,0.550,��,4.5,��
2023/01/28,08:20,0.544,0.780,0.495,1.020,0.686,0.317,0.577,0.550,���k��,3.5,��
2023/01/28,08:30,0.544,0.781,0.495,1.023,0.689,0.315,0.578,0.551,��,3.2,��
2023/01/28,08:40,0.545,0.781,0.496,1.023,0.688,0.316,0.579,0.549,��,3.6,��
2023/01/28,08:50,0.544,0.780,0.496,1.019,0.689,0.316,0.576,0.551,���k��,2.7,��
2023/01/28,09:00,0.544,0.780,0.496,1.022,0.689,0.317,0.577,0.552,���k��,2.8,��
2023/01/28,09:10,0.543,0.780,0.494,1.021,0.687,0.316,0.578,0.550,�k��,2.0,��
2023/01/28,09:20,0.546,0.781,0.495,1.022,0.688,0.317,0.578,0.550,���k��,1.4,��
2023/01/28,09:30,0.547,0.782,0.498,1.021,0.688,0.316,0.580,0.549,�k,2.3,��
2023/01/28,09:40,0.547,0.781,0.495,1.020,0.689,0.317,0.579,0.550,���k��,1.5,��
2023/01/28,09:50,0.546,0.782,0.497,1.024,0.688,0.317,0.578,0.552,���쐼,2.5,��
2023/01/28,10:00,0.548,0.783,0.496,1.021,0.689,0.317,0.576,0.551,��,0.5,��
2023/01/28,10:10,0.545,0.783,0.497,1.022,0.690,0.317,0.578,0.552,�k��,1.8,��
2023/01/28,10:20,0.547,0.782,0.497,1.022,0.691,0.316,0.578,0.552,��,0.8,��
2023/01/28,10:30,0.549,0.784,0.498,1.024,0.692,0.316,0.578,0.551,���k��,1.9,��
2023/01/28,10:40,0.547,0.784,0.498,1.023,0.692,0.318,0.576,0.552,��,1.9,��
2023/01/28,10:50,0.549,0.783,0.499,1.025,0.693,0.317,0.576,0.551,���쓌,1.6,��
2023/01/28,11:00,0.549,0.783,0.498,1.023,0.693,0.317,0.576,0.551,�k��,1.2,��
2023/01/28,11:10,0.548,0.783,0.497,1.026,0.694,0.317,0.577,0.552,�k�k��,2.6,��
2023/01/28,11:20,0.547,0.785,0.497,1.022,0.695,0.317,0.576,0.552,�k,6.1,��
2023/01/28,11:30,0.547,0.786,0.499,1.024,0.696,0.317,0.575,0.550,�k,5.6,��
2023/01/28,11:40,0.548,0.787,0.498,1.022,0.695,0.317,0.577,0.552,�k,7.5,��
2023/01/28,11:50,0.549,0.785,0.498,1.022,0.696,0.316,0.577,0.551,�k�k��,7.7,��
2023/01/28,12:00,0.547,0.787,0.498,1.023,0.697,0.316,0.578,0.552,�k�k��,6.4,��
2023/01/28,12:10,0.548,0.787,0.498,1.023,0.696,0.316,0.579,0.551,�k�k��,5.0,��
2023/01/28,12:20,0.549,0.788,0.499,1.024,0.697,0.316,0.579,0.552,�k,4.6,��
2023/01/28,12:30,0.551,0.789,0.499,1.026,0.697,0.317,0.579,0.552,�k�k��,3.5,��
2023/01/28,12:40,0.549,0.788,0.498,1.024,0.700,0.317,0.579,0.553,�k,5.0,��
2023/01/28,12:50,0.548,0.788,0.501,1.026,0.700,0.319,0.579,0.553,�k,7.4,��
2023/01/28,13:00,0.549,0.790,0.501,1.027,0.700,0.318,0.579,0.552,�k,7.4,��
2023/01/28,13:10,0.550,0.789,0.500,1.025,0.700,0.318,0.578,0.552,�k,7.7,��
2023/01/28,13:20,0.550,0.791,0.499,1.025,0.701,0.317,0.579,0.552,�k,6.7,��
2023/01/28,13:30,0.551,0.790,0.500,1.026,0.703,0.318,0.579,0.551,�k,5.0,��
2023/01/28,13:40,0.551,0.792,0.501,1.027,0.704,0.319,0.580,0.553,�k,4.1,��
2023/01/28,13:50,0.551,0.791,0.501,1.027,0.705,0.319,0.580,0.552,�k�k��,5.2,��
2023/01/28,14:00,0.550,0.791,0.501,1.027,0.704,0.318,0.580,0.551,�k�k��,6.4,��
2023/01/28,14:10,0.551,0.790,0.501,1.027,0.704,0.319,0.580,0.552,�k�k��,5.2,��
2023/01/28,14:20,0.550,0.791,0.501,1.029,0.704,0.319,0.580,0.552,�k,5.5,��
2023/01/28,14:30,0.551,0.791,0.502,1.027,0.703,0.320,0.581,0.549,�k,4.1,��
2023/01/28,14:40,0.551,0.793,0.502,1.027,0.704,0.318,0.579,0.553,�k,4.6,��
2023/01/28,14:50,0.551,0.793,0.501,1.029,0.707,0.319,0.582,0.551,�k,4.6,��
2023/01/28,15:00,0.550,0.793,0.502,1.027,0.706,0.319,0.581,0.552,�k,3.1,��
2023/01/28,15:10,0.550,0.792,0.503,1.030,0.706,0.317,0.583,0.553,�k,3.8,��
2023/01/28,15:20,0.551,0.793,0.504,1.028,0.709,0.320,0.581,0.555,�k,3.0,��
2023/01/28,15:30,0.551,0.794,0.502,1.029,0.708,0.319,0.582,0.551,�k,3.6,��
2023/01/28,15:40,0.552,0.794,0.504,1.029,0.705,0.319,0.582,0.552,�k,3.6,��
2023/01/28,15:50,0.552,0.794,0.503,1.030,0.708,0.320,0.582,0.553,�k�k��,3.0,��
2023/01/28,16:00,0.552,0.795,0.504,1.032,0.709,0.319,0.581,0.552,�k�k��,3.5,��
2023/01/28,16:10,0.553,0.794,0.505,1.030,0.706,0.318,0.581,0.552,�k�k��,1.5,��
2023/01/28,16:20,0.552,0.794,0.503,1.027,0.708,0.320,0.582,0.554,�k�k��,2.7,��
2023/01/28,16:30,0.552,0.793,0.503,1.028,0.708,0.318,0.583,0.554,�k,1.1,��
2023/01/28,16:40,0.553,0.795,0.504,1.029,0.708,0.319,0.582,0.551,���k��,0.6,��
2023/01/28,16:50,0.551,0.795,0.504,1.029,0.708,0.320,0.583,0.553,���쐼,2.8,��
2023/01/28,17:00,0.553,0.797,0.503,1.029,0.707,0.320,0.582,0.553,���쐼,4.9,��
2023/01/28,17:10,0.553,0.795,0.506,1.029,0.707,0.319,0.581,0.554,���쐼,6.0,��
2023/01/28,17:20,0.552,0.794,0.503,1.031,0.708,0.319,0.581,0.552,��,5.2,��
2023/01/28,17:30,0.552,0.795,0.501,1.028,0.706,0.319,0.581,0.551,��,4.9,��
2023/01/28,17:40,0.551,0.793,0.501,1.030,0.706,0.319,0.580,0.553,��,3.2,��
2023/01/28,17:50,0.551,0.794,0.501,1.030,0.705,0.319,0.583,0.551,���쐼,3.0,��
2023/01/28,18:00,0.552,0.795,0.500,1.030,0.706,0.319,0.581,0.552,���쐼,3.8,��
2023/01/28,18:10,0.551,0.792,0.502,1.028,0.708,0.318,0.582,0.553,��,3.9,��
2023/01/28,18:20,0.551,0.794,0.500,1.028,0.708,0.318,0.580,0.553,��,2.3,��
2023/01/28,18:30,0.552,0.794,0.503,1.029,0.707,0.318,0.581,0.554,���쐼,1.9,��
2023/01/28,18:40,0.551,0.795,0.502,1.030,0.708,0.319,0.581,0.552,�쐼,1.9,��
2023/01/28,18:50,0.552,0.795,0.504,1.030,0.708,0.318,0.581,0.552,�쐼,1.7,��
2023/01/28,19:00,0.553,0.792,0.503,1.030,0.706,0.321,0.580,0.553,��쐼,1.1,��
2023/01/28,19:10,0.550,0.795,0.503,1.029,0.707,0.319,0.579,0.551,-,CALM,��
2023/01/28,19:20,0.552,0.795,0.503,1.029,0.708,0.319,0.581,0.554,�k�k��,1.4,��
2023/01/28,19:30,0.553,0.793,0.504,1.030,0.708,0.318,0.581,0.554,���k��,1.5,��
2023/01/28,19:40,0.550,0.795,0.502,1.029,0.707,0.319,0.581,0.553,�k��,1.6,��
2023/01/28,19:50,0.551,0.793,0.503,1.028,0.708,0.319,0.579,0.551,���k��,1.8,��
2023/01/28,20:00,0.550,0.794,0.502,1.030,0.708,0.319,0.580,0.553,���k��,1.8,��
2023/01/28,20:10,0.551,0.795,0.502,1.029,0.706,0.320,0.580,0.553,�k��,1.5,��
2023/01/28,20:20,0.551,0.794,0.504,1.030,0.707,0.318,0.579,0.552,���k��,2.1,��
2023/01/28,20:30,0.550,0.793,0.502,1.030,0.707,0.321,0.580,0.553,�k��,2.1,��
2023/01/28,20:40,0.551,0.793,0.502,1.030,0.708,0.318,0.581,0.552,�k��,3.3,��
2023/01/28,20:50,0.551,0.796,0.501,1.030,0.709,0.320,0.581,0.552,�k��,3.6,��
2023/01/28,21:00,0.551,0.793,0.502,1.028,0.707,0.318,0.582,0.553,���k��,3.6,��
2023/01/28,21:10,0.552,0.794,0.503,1.030,0.710,0.318,0.581,0.553,���k��,3.6,��
2023/01/28,21:20,0.550,0.796,0.503,1.028,0.707,0.318,0.582,0.552,�k��,3.9,��
2023/01/28,21:30,0.550,0.790,0.503,1.030,0.709,0.318,0.580,0.554,�k��,5.0,��
2023/01/28,21:40,0.550,0.794,0.502,1.029,0.708,0.318,0.581,0.553,���k��,4.4,��
2023/01/28,21:50,0.549,0.793,0.504,1.031,0.706,0.319,0.581,0.551,�k��,5.6,��
2023/01/28,22:00,0.550,0.794,0.501,1.032,0.708,0.319,0.579,0.553,���k��,6.3,��
2023/01/28,22:10,0.551,0.794,0.502,1.030,0.707,0.318,0.581,0.552,���k��,6.6,��
2023/01/28,22:20,0.551,0.795,0.504,1.029,0.708,0.318,0.581,0.553,���k��,6.4,��
2023/01/28,22:30,0.550,0.794,0.503,1.030,0.708,0.318,0.582,0.554,���k��,6.0,��
2023/01/28,22:40,0.550,0.794,0.503,1.028,0.705,0.316,0.580,0.553,��,5.5,��
2023/01/28,22:50,0.549,0.794,0.502,1.030,0.708,0.318,0.582,0.552,��,5.3,��
2023/01/28,23:00,0.551,0.794,0.504,1.030,0.707,0.319,0.580,0.554,��,5.5,��
2023/01/28,23:10,0.551,0.795,0.502,1.029,0.707,0.319,0.581,0.553,��,6.4,��
2023/01/28,23:20,0.549,0.792,0.503,1.026,0.708,0.317,0.580,0.553,��,8.5,��
2023/01/28,23:30,0.550,0.794,0.502,1.029,0.706,0.319,0.579,0.554,���k��,8.2,��
2023/01/28,23:40,0.550,0.795,0.502,1.031,0.707,0.319,0.581,0.552,���k��,7.4,��
2023/01/28,23:50,0.550,0.794,0.502,1.031,0.706,0.319,0.581,0.554,���k��,6.3,��
